Location: Paddlesworth
(51.1000°N, 1.1333°E)
Time: 18:33:28
(UTC+00:00)

Cosmos 1707 Rocket - Pass Details

Date: 11 May 2021
Orbit: 605 x 631 km, 82.5° (Epoch: 21 June)

Event Time Altitude Azimuth Distance (km) Brightness Sun altitude
Exits shadow 22:32:58 38° 190° (S) 953 4.1 -18.6°
Maximum altitude 22:34:39 89° 272° (W) 626 3.5 -18.7°
Drops below altitude 10° 22:39:06 10° 10° (N) 2,004 7.1 -19.0°
Sets 22:41:21 0° 11° (N) 2,919 8.1 -19.1°
